Flag for U.S.A. Weather past 2 weeks in Fremont, California, U.S.A.

Now
61 °F

Sunny.


Feels Like: 61 °F
Forecast: 55 / 71 °F
Wind: 17 mph from North

Location: Moffett Field

Current Time: May 25, 2015 at 7:30:52 PM

Latest Report: May 25, 2015 at 6:56 PM


Visibility: 10 mi

Pressure: 29.95 "Hg

Humidity: 72%

Dew point: 52 °F

Location of FremontLocation

Historic Weather in Fremont — Graph

°F

Fremont temperature yesterday

Maximum temperature yesterday: 67 °F (at 12:56 PM)
Minimum temperature yesterday: 52 °F (at 5:56 AM)
Average temperature yesterday: 59 °F

Past Weeks' High & Low Weather Summary

 TemperatureHumidityPressure
High67 °F (May 13, 2:56 PM)93% (May 15, 5:56 AM)30.14 "Hg (May 15, 5:56 AM)
Low48 °F (May 12, 4:56 AM)35% (May 12, 4:56 PM)29.81 "Hg (May 14, 3:56 PM)
Average58 °F68%30.00 "Hg
* Reported May 10 5:56 PM — May 25 5:56 PM, Fremont, Weather by CustomWeather, © 2015

Note: Actual official high and low records may vary slightly from our data, if they occured in-between our weather recording intervals... More about our weather records

Advertising

Fremont weather history for previous 24 hours

 ConditionsComfort  
Time TempWeatherWind HumidityBarometerVisibility
5:56 PM
Mon, May 25
63 °FSunny.18 mph65%29.95 "Hg10 mi
4:56 PM64 °FSunny.21 mph68%29.95 "Hg10 mi
3:56 PM65 °FSunny.22 mph63%29.96 "Hg10 mi
2:56 PM66 °FSunny.21 mph61%29.97 "Hg10 mi
1:56 PM65 °FSunny.17 mph63%29.98 "Hg10 mi
12:56 PM65 °FSunny.12 mph63%30.00 "Hg10 mi
11:56 AM66 °FSunny.10 mph61%29.99 "Hg10 mi
10:56 AM63 °FOvercast.7 mph65%29.99 "Hg10 mi
9:56 AM60 °FOvercast.No wind69%29.99 "Hg10 mi
8:56 AM58 °FOvercast.No wind72%30.00 "Hg10 mi
7:56 AM56 °FOvercast.5 mph75%29.98 "Hg10 mi
6:56 AM56 °FOvercast.6 mph75%29.97 "Hg10 mi
5:56 AM56 °FOvercast.7 mph75%29.97 "Hg10 mi
4:56 AM56 °FOvercast.6 mph77%29.96 "Hg10 mi
3:56 AM56 °FOvercast.3 mph77%29.97 "Hg10 mi
2:56 AM56 °FOvercast.5 mph77%29.97 "Hg10 mi
1:56 AM56 °FOvercast.5 mph77%29.98 "Hg10 mi
12:56 AM56 °FOvercast.7 mph77%29.99 "Hg10 mi
11:56 PM
Sun, May 24
56 °FOvercast.7 mph77%30.00 "Hg10 mi
10:56 PM57 °FOvercast.6 mph78%30.01 "Hg10 mi
9:56 PM56 °FOvercast.5 mph81%30.01 "Hg10 mi
8:56 PM56 °FSunny.8 mph81%30.00 "Hg10 mi
7:56 PM57 °FSunny.10 mph81%29.98 "Hg10 mi
Weather by CustomWeather, © 2015

See weather overviewHow to use our weather pages